User: anonymous
Location: Caltech
(34.1382°N, 118.1253°W)
Time: 23:32:40
(UTC-07:00)
Language:

ASTRO E2 - Orbit

View from above orbital plane
View from above orbital plane
View from above satellite
View from above satellite

Ground track
Ground track

The orbit data is extracted from the following two-line orbital elements,

1 28773U 05025A   14212.56925877  .00002540  00000-0  15149-3 0  3301
2 28773 031.3823 251.7803 0005248 268.4345 222.4282 15.09083273497905
Epoch (UTC): 31 July 2014 13:39:43
Eccentricity: 0.0005248
inclination: 31.3823°
perigee height: 535 km
apogee height: 542 km
right ascension of ascending node: 251.7803°
argument of perigee: 268.4345°
revolutions per day: 15.09083273
mean anomaly at epoch: 222.4282°
orbit number at epoch: 49790

The dashed part of the orbit path shows where the satellite is in the earth's shadow,  

DLR